When you browse on this site, cookies collect data to enhance your experience and personalize the content and advertising you see.
Visit our Privacy Policy to learn more. By continuing to use the site, you agree to this use of cookies and data.
  • In United Kingdom
  • List of Countries
  • For 7 days
  • Water Temperature
  • Satellite Maps
  • Weather Map
  • Weather Widgets
  • user-avatar
    Login

    Hourly Weather Mardan

    Today, 22 February, Friday

    Time Temperature Precipitation Wind Pressure Humidity
    00:00 +11°C° 0 mm 1 mps 736 mmHg 64%
    01:00 +11°C° 0 mm 1 mps 736 mmHg 64%
    02:00 +10°C° 0 mm 1 mps 736 mmHg 64%
    03:00 +10°C° 0 mm 1 mps 736 mmHg 63%
    04:00 +10°C° 0 mm 1 mps 737 mmHg 62%
    05:00 +9°C° 0 mm 1 mps 735 mmHg 57%
    06:00 +10°C° 0 mm 1 mps 736 mmHg 55%
    07:00 +10°C° 0 mm 1 mps 736 mmHg 54%
    08:00 +11°C° 0 mm 1 mps 736 mmHg 53%
    09:00 +13°C° 0 mm 1 mps 737 mmHg 47%
    10:00 +15°C° 0 mm 2 mps 737 mmHg 41%
    11:00 +17°C° 0 mm 2 mps 737 mmHg 35%
    12:00 +18°C° 0 mm 2 mps 737 mmHg 34%
    13:00 +19°C° 0 mm 2 mps 737 mmHg 33%
    14:00 +20°C° 0 mm 2 mps 737 mmHg 32%
    15:00 +19°C° 0 mm 2 mps 737 mmHg 35%
    16:00 +19°C° 0 mm 2 mps 736 mmHg 37%
    17:00 +19°C° 0 mm 2 mps 736 mmHg 40%
    18:00 +17°C° 0 mm 2 mps 737 mmHg 39%
    19:00 +16°C° 0 mm 2 mps 737 mmHg 38%
    20:00 +14°C° 0 mm 2 mps 737 mmHg 37%
    21:00 +14°C° 0 mm 2 mps 738 mmHg 37%
    22:00 +13°C° 0 mm 2 mps 738 mmHg 38%
    23:00 +13°C° 0 mm 2 mps 738 mmHg 38%

    Tomorrow, 23 February, Saturday

    Time Temperature Precipitation Wind Pressure Humidity
    00:00 +12°C° 0 mm 2 mps 738 mmHg 38%
    01:00 +10°C° 0 mm 2 mps 738 mmHg 39%
    02:00 +10°C° 0 mm 2 mps 738 mmHg 39%
    03:00 +10°C° 0 mm 2 mps 737 mmHg 38%
    04:00 +9°C° 0 mm 2 mps 737 mmHg 37%
    05:00 +9°C° 0 mm 2 mps 737 mmHg 37%
    06:00 +9°C° 0 mm 2 mps 737 mmHg 38%
    07:00 +9°C° 0 mm 2 mps 737 mmHg 39%
    08:00 +10°C° 0 mm 2 mps 737 mmHg 41%
    09:00 +13°C° 0 mm 2 mps 737 mmHg 36%
    10:00 +15°C° 0 mm 2 mps 736 mmHg 31%
    11:00 +17°C° 0 mm 2 mps 736 mmHg 26%
    12:00 +19°C° 0 mm 3 mps 735 mmHg 25%
    13:00 +20°C° 0 mm 3 mps 735 mmHg 24%
    14:00 +21°C° 0 mm 3 mps 734 mmHg 22%
    15:00 +20°C° 0 mm 3 mps 734 mmHg 26%
    16:00 +20°C° 0 mm 2 mps 734 mmHg 29%
    17:00 +19°C° 0 mm 2 mps 733 mmHg 33%
    18:00 +18°C° 0 mm 2 mps 733 mmHg 32%
    19:00 +16°C° 0 mm 2 mps 734 mmHg 32%
    20:00 +14°C° 0 mm 2 mps 734 mmHg 32%
    21:00 +14°C° 0 mm 2 mps 734 mmHg 32%
    22:00 +13°C° 0 mm 2 mps 734 mmHg 33%
    23:00 +12°C° 0 mm 2 mps 734 mmHg 33%

    Day after tomorrow, 24 February, Sunday

    Time Temperature Precipitation Wind Pressure Humidity
    00:00 +12°C° 0 mm 2 mps 733 mmHg 33%
    01:00 +10°C° 0 mm 2 mps 733 mmHg 33%
    02:00 +10°C° 0 mm 2 mps 733 mmHg 32%
    03:00 +10°C° 0 mm 2 mps 733 mmHg 32%
    04:00 +9°C° 0 mm 2 mps 733 mmHg 31%
    05:00 +9°C° 0 mm 2 mps 732 mmHg 31%
    06:00 +9°C° 0 mm 2 mps 733 mmHg 33%
    07:00 +10°C° 0 mm 2 mps 733 mmHg 35%
    08:00 +10°C° 0 mm 2 mps 733 mmHg 37%
    09:00 +13°C° 0 mm 2 mps 733 mmHg 32%
    10:00 +15°C° 0 mm 2 mps 733 mmHg 28%
    11:00 +18°C° 0 mm 2 mps 733 mmHg 23%
    12:00 +19°C° 0 mm 2 mps 733 mmHg 22%
    13:00 +20°C° 0 mm 2 mps 732 mmHg 21%
    14:00 +21°C° 0 mm 3 mps 732 mmHg 20%
    15:00 +20°C° 0 mm 2 mps 732 mmHg 23%
    16:00 +20°C° 0 mm 2 mps 732 mmHg 26%
    17:00 +19°C° 0 mm 2 mps 732 mmHg 29%
    18:00 +18°C° 0 mm 2 mps 732 mmHg 29%
    19:00 +16°C° 0 mm 1 mps 733 mmHg 29%
    20:00 +14°C° 0 mm 1 mps 733 mmHg 29%
    21:00 +13°C° 0 mm 1 mps 734 mmHg 30%
    22:00 +13°C° 0 mm 1 mps 734 mmHg 31%
    23:00 +12°C° 0 mm 2 mps 734 mmHg 33%

    25 February, Monday

    Time Temperature Precipitation Wind Pressure Humidity
    00:00 +12°C° 0 mm 2 mps 734 mmHg 33%
    01:00 +10°C° 0 mm 2 mps 734 mmHg 33%
    02:00 +10°C° 0 mm 2 mps 734 mmHg 34%
    03:00 +9°C° 0 mm 2 mps 734 mmHg 34%
    04:00 +9°C° 0 mm 2 mps 734 mmHg 34%
    05:00 +9°C° 0 mm 2 mps 733 mmHg 34%
    06:00 +9°C° 0 mm 2 mps 734 mmHg 35%
    07:00 +9°C° 0 mm 2 mps 734 mmHg 37%
    08:00 +10°C° 0 mm 2 mps 734 mmHg 39%
    09:00 +13°C° 0 mm 2 mps 734 mmHg 34%
    10:00 +15°C° 0 mm 2 mps 734 mmHg 29%
    11:00 +17°C° 0 mm 2 mps 734 mmHg 24%
    12:00 +18°C° 0 mm 2 mps 734 mmHg 24%
    13:00 +19°C° 0 mm 2 mps 734 mmHg 23%
    14:00 +20°C° 0 mm 2 mps 733 mmHg 22%
    15:00 +20°C° 0 mm 2 mps 733 mmHg 26%
    16:00 +19°C° 0 mm 2 mps 732 mmHg 29%
    17:00 +19°C° 0 mm 2 mps 732 mmHg 32%
    18:00 +17°C° 0 mm 2 mps 732 mmHg 32%
    19:00 +15°C° 0 mm 2 mps 733 mmHg 32%
    20:00 +13°C° 0 mm 2 mps 733 mmHg 32%
    21:00 +13°C° 0 mm 2 mps 733 mmHg 33%
    22:00 +12°C° 0 mm 2 mps 733 mmHg 34%
    23:00 +12°C° 0 mm 2 mps 733 mmHg 35%

    26 February, Tuesday

    Time Temperature Precipitation Wind Pressure Humidity
    00:00 +10°C° 0 mm 2 mps 733 mmHg 35%
    01:00 +10°C° 0 mm 2 mps 733 mmHg 35%
    02:00 +10°C° 0 mm 2 mps 732 mmHg 35%
    03:00 +9°C° 0 mm 2 mps 732 mmHg 34%
    04:00 +9°C° 0 mm 2 mps 732 mmHg 34%
    05:00 +9°C° 0 mm 2 mps 732 mmHg 33%
    06:00 +9°C° 0 mm 2 mps 732 mmHg 35%
    07:00 +10°C° 0 mm 2 mps 732 mmHg 36%
    08:00 +10°C° 0 mm 2 mps 732 mmHg 38%
    09:00 +13°C° 0 mm 2 mps 732 mmHg 34%
    10:00 +14°C° 0 mm 2 mps 732 mmHg 31%
    11:00 +16°C° 0 mm 2 mps 732 mmHg 27%
    12:00 +17°C° 0 mm 3 mps 732 mmHg 26%
    13:00 +18°C° 0 mm 3 mps 731 mmHg 25%
    14:00 +18°C° 0 mm 3 mps 730 mmHg 24%
    15:00 +18°C° 0 mm 3 mps 730 mmHg 28%
    16:00 +18°C° 0 mm 3 mps 729 mmHg 31%
    17:00 +17°C° 0 mm 2 mps 728 mmHg 35%
    18:00 +16°C° 0 mm 3 mps 728 mmHg 35%
    19:00 +13°C° 0 mm 3 mps 728 mmHg 35%
    20:00 +12°C° 0 mm 3 mps 727 mmHg 35%
    21:00 +12°C° 0 mm 3 mps 727 mmHg 35%
    22:00 +11°C° 0 mm 3 mps 727 mmHg 35%
    23:00 +12°C° 0 mm 2 mps 727 mmHg 34%

    27 February, Wednesday

    Time Temperature Precipitation Wind Pressure Humidity
    00:00 +10°C° 0 mm 2 mps 726 mmHg 34%
    01:00 +10°C° 0 mm 2 mps 726 mmHg 34%
    02:00 +10°C° 0 mm 2 mps 726 mmHg 33%
    03:00 +9°C° 0 mm 2 mps 726 mmHg 33%
    04:00 +10°C° 0 mm 1 mps 726 mmHg 33%
    05:00 +9°C° 0 mm 1 mps 726 mmHg 32%
    06:00 +10°C° 0 mm 1 mps 727 mmHg 34%
    07:00 +10°C° 0 mm 1 mps 728 mmHg 36%
    08:00 +11°C° 0 mm 1 mps 729 mmHg 38%
    09:00 +13°C° 0 mm 1 mps 729 mmHg 34%
    10:00 +14°C° 0 mm 1 mps 729 mmHg 30%
    11:00 +16°C° 0 mm 1 mps 730 mmHg 25%
    12:00 +18°C° 0 mm 1 mps 730 mmHg 25%
    13:00 +18°C° 0 mm 2 mps 730 mmHg 25%
    14:00 +18°C° 0 mm 2 mps 730 mmHg 24%
    15:00 +18°C° 0 mm 2 mps 730 mmHg 28%
    16:00 +18°C° 0 mm 2 mps 730 mmHg 31%
    17:00 +18°C° 0 mm 2 mps 731 mmHg 35%
    18:00 +16°C° 0 mm 2 mps 731 mmHg 40%
    19:00 +14°C° 0 mm 2 mps 732 mmHg 45%
    20:00 +13°C° 0 mm 2 mps 733 mmHg 49%
    21:00 +12°C° 0 mm 1 mps 733 mmHg 53%
    22:00 +12°C° 0 mm 1 mps 734 mmHg 56%
    23:00 +11°C° 0 mm 1 mps 734 mmHg 60%
    Show more